YAOGAN 15

导读

YAOGAN 15(遥感十五号)是中国自主研制的地球观测卫星,于2012年5月29日在太原卫星发射中心由长征四号丙运载火箭发射升空,顺利进入预定轨道。官方介绍其主要用于科学试验、国土资源普查、农作物估产和防灾减灾等领域,可获取高分辨率地表观测数据,服务国民经济发展。外界普遍认为遥感卫星系列具备军事观测能力,该卫星可能搭载雷达载荷,支持全天时全天候成像。作为中国对地观测体系的重要成员,它提升了我国遥感数据自主获取能力,持续为多领域提供数据支持。

基本信息
目录编号:
38354
目录名称:
YAOGAN 15
国际标识:
2012-029A
轨道中心:
EARTH
卫星名称:
YAOGAN 15
卫星全名:
--
卫星状态:
在轨 (已飞行5219 天)
发射日期:
2012-05-29 UTC
国别 :
中国 (CN)
星等 :
--
该卫星已列入 空间交会检测服务 Space Conjunction Data Service (SCDS) ,当前飞行风险评估等级: 无高风险
轨道信息
数据来源 国际轨道数据 AOE轨道数据
星历时间 2026-09-12T13:10:58+0800
4小时前
查看轨道信息
2026-09-10T22:00:00+0800
1天前
查看轨道信息
半长轴 7569.02km 7569.023km
偏心率 0.0025861 0.002593
轨道倾角 100.726° 100.728°
近地点辐角 94.232° 97.530°
升交点赤经 101.559° 99.897°
平近点角 266.175° 77.830°
近地点 1171.308km 1171.259km
远地点 1210.458km 1210.513km
周期 109.224分钟 109.224分钟
每日圈数 13.183882 13.183875
详细信息
使用方式:
暂无
2D轨道图
3D轨道图
轨道高度分析图
轨道倾角分析图
轨道综合分析图
查看轨道综合分析图
交会数据列表
事件ID 空间交会对象 最接近时刻(TCA) 交会距离 交会风险概率(CRP) 交会风险指数(CRI) 操作
CDM_260914-180503-835405-411321
2026-09-14T
18:05:41+0000
1.468 km
极远距离
7.101072E-6 低风险 0.52
CDM_260914-045203-835404-565421
2026-09-14T
04:52:13+0000
2.943 km
极远距离
7.707877E-7 极低风险 0.33
与全量物体交会距离演化趋势
与全量物体交会风险概率演化趋势